Year,Month,Day,Hour,Minute,Value (Times are PST for temperature in C)
2017,10,24,00,00,10.80
2017,10,24,00,01,10.80
2017,10,24,00,02,10.80
2017,10,24,00,03,10.80
2017,10,24,00,04,10.80
2017,10,24,00,05,10.80
2017,10,24,00,06,10.80
2017,10,24,00,07,10.80
2017,10,24,00,08,10.80
2017,10,24,00,09,10.80
2017,10,24,00,10,10.70
2017,10,24,00,11,10.70
2017,10,24,00,12,10.70
2017,10,24,00,13,10.70
2017,10,24,00,14,10.70
2017,10,24,00,15,10.70
2017,10,24,00,16,10.70
2017,10,24,00,17,10.70
2017,10,24,00,18,10.70
2017,10,24,00,19,10.70
2017,10,24,00,20,10.70
2017,10,24,00,21,10.70
2017,10,24,00,22,10.70
2017,10,24,00,23,10.70
2017,10,24,00,24,10.70
2017,10,24,00,25,10.70
2017,10,24,00,26,10.70
2017,10,24,00,27,10.70
2017,10,24,00,28,10.70
2017,10,24,00,29,10.70
2017,10,24,00,30,10.70
2017,10,24,00,31,10.70
2017,10,24,00,32,10.70
2017,10,24,00,33,10.70
2017,10,24,00,34,10.70
2017,10,24,00,35,10.70
2017,10,24,00,36,10.70
2017,10,24,00,37,10.70
2017,10,24,00,38,10.70
2017,10,24,00,39,10.70
2017,10,24,00,40,10.70
2017,10,24,00,41,10.70
2017,10,24,00,42,10.70
2017,10,24,00,43,10.70
2017,10,24,00,44,10.70
2017,10,24,00,45,10.70
2017,10,24,00,46,10.70
2017,10,24,00,47,10.80
2017,10,24,00,48,10.80
2017,10,24,00,49,10.80
2017,10,24,00,50,10.80
2017,10,24,00,51,10.80
2017,10,24,00,52,10.80
2017,10,24,00,53,10.80
2017,10,24,00,54,10.80
2017,10,24,00,55,10.80
2017,10,24,00,56,10.80
2017,10,24,00,57,10.80
2017,10,24,00,58,10.80
2017,10,24,00,59,10.80
2017,10,24,01,00,10.80
2017,10,24,01,01,10.80
2017,10,24,01,02,10.80
2017,10,24,01,03,10.80
2017,10,24,01,04,10.80
2017,10,24,01,05,10.80
2017,10,24,01,06,10.80
2017,10,24,01,07,10.80
2017,10,24,01,08,10.80
2017,10,24,01,09,10.80
2017,10,24,01,10,10.70
2017,10,24,01,11,10.70
2017,10,24,01,12,10.70
2017,10,24,01,13,10.70
2017,10,24,01,14,10.70
2017,10,24,01,15,10.70
2017,10,24,01,16,10.70
2017,10,24,01,17,10.80
2017,10,24,01,18,10.70
2017,10,24,01,19,10.80
2017,10,24,01,20,10.70
2017,10,24,01,21,10.70
2017,10,24,01,22,10.80
2017,10,24,01,23,10.80
2017,10,24,01,24,10.80
2017,10,24,01,25,10.80
2017,10,24,01,26,10.80
2017,10,24,01,27,10.80
2017,10,24,01,28,10.80
2017,10,24,01,29,10.80
2017,10,24,01,30,10.80
2017,10,24,01,31,10.80
2017,10,24,01,32,10.80
2017,10,24,01,33,10.80
2017,10,24,01,34,10.80
2017,10,24,01,35,10.90
2017,10,24,01,36,10.90
2017,10,24,01,37,10.90
2017,10,24,01,38,10.90
2017,10,24,01,39,10.90
2017,10,24,01,40,10.90
2017,10,24,01,41,10.90
2017,10,24,01,42,11.00
2017,10,24,01,43,11.00
2017,10,24,01,44,11.00
2017,10,24,01,45,11.00
2017,10,24,01,46,11.00
2017,10,24,01,47,11.10
2017,10,24,01,48,11.10
2017,10,24,01,49,11.10
2017,10,24,01,50,11.10
2017,10,24,01,51,11.10
2017,10,24,01,52,11.10
2017,10,24,01,53,11.10
2017,10,24,01,54,11.10
2017,10,24,01,55,11.10
2017,10,24,01,56,11.10
2017,10,24,01,57,11.10
2017,10,24,01,58,11.10
2017,10,24,01,59,11.10
2017,10,24,02,00,11.10
2017,10,24,02,01,11.10
2017,10,24,02,02,11.10
2017,10,24,02,03,11.10
2017,10,24,02,04,11.10
2017,10,24,02,05,11.10
2017,10,24,02,06,11.10
2017,10,24,02,07,11.10
2017,10,24,02,08,11.10
2017,10,24,02,09,11.10
2017,10,24,02,10,11.10
2017,10,24,02,11,11.10
2017,10,24,02,12,11.10
2017,10,24,02,13,11.10
2017,10,24,02,14,11.10
2017,10,24,02,15,11.10
2017,10,24,02,16,11.10
2017,10,24,02,17,11.10
2017,10,24,02,18,11.10
2017,10,24,02,19,11.10
2017,10,24,02,20,11.10
2017,10,24,02,21,11.10
2017,10,24,02,22,11.10
2017,10,24,02,23,11.10
2017,10,24,02,24,11.20
2017,10,24,02,25,11.20
2017,10,24,02,26,11.20
2017,10,24,02,27,11.20
2017,10,24,02,28,11.20
2017,10,24,02,29,11.20
2017,10,24,02,30,11.20
2017,10,24,02,31,11.20
2017,10,24,02,32,11.20
2017,10,24,02,33,11.20
2017,10,24,02,34,11.20
2017,10,24,02,35,11.20
2017,10,24,02,36,11.20
2017,10,24,02,37,11.20
2017,10,24,02,38,11.20
2017,10,24,02,39,11.20
2017,10,24,02,40,11.20
2017,10,24,02,41,11.20
2017,10,24,02,42,11.20
2017,10,24,02,43,11.20
2017,10,24,02,44,11.20
2017,10,24,02,45,11.20
2017,10,24,02,46,11.10
2017,10,24,02,47,11.10
2017,10,24,02,48,11.10
2017,10,24,02,49,11.10
2017,10,24,02,50,11.10
2017,10,24,02,51,11.10
2017,10,24,02,52,11.10
2017,10,24,02,53,11.10
2017,10,24,02,54,11.10
2017,10,24,02,55,11.10
2017,10,24,02,56,11.10
2017,10,24,02,57,11.10
2017,10,24,02,58,11.10
2017,10,24,02,59,11.20
2017,10,24,03,00,11.20
2017,10,24,03,01,11.20
2017,10,24,03,02,11.20
2017,10,24,03,03,11.20
2017,10,24,03,04,11.10
2017,10,24,03,05,11.10
2017,10,24,03,06,11.10
2017,10,24,03,07,11.10
2017,10,24,03,08,11.10
2017,10,24,03,09,11.10
2017,10,24,03,10,11.10
2017,10,24,03,11,11.10
2017,10,24,03,12,11.10
2017,10,24,03,13,11.10
2017,10,24,03,14,11.10
2017,10,24,03,15,11.10
2017,10,24,03,16,11.10
2017,10,24,03,17,11.10
2017,10,24,03,18,11.10
2017,10,24,03,19,11.10
2017,10,24,03,20,11.10
2017,10,24,03,21,11.10
2017,10,24,03,22,11.10
2017,10,24,03,23,11.10
2017,10,24,03,24,11.10
2017,10,24,03,25,11.10
2017,10,24,03,26,11.10
2017,10,24,03,27,11.10
2017,10,24,03,28,11.10
2017,10,24,03,29,11.10
2017,10,24,03,30,11.10
2017,10,24,03,31,11.10
2017,10,24,03,32,11.10
2017,10,24,03,33,11.10
2017,10,24,03,34,11.20
2017,10,24,03,35,11.20
2017,10,24,03,36,11.30
2017,10,24,03,37,11.30
2017,10,24,03,38,11.40
2017,10,24,03,39,11.40
2017,10,24,03,40,11.40
2017,10,24,03,41,11.40
2017,10,24,03,42,11.40
2017,10,24,03,43,11.40
2017,10,24,03,44,11.40
2017,10,24,03,45,11.40
2017,10,24,03,46,11.30
2017,10,24,03,47,11.30
2017,10,24,03,48,11.30
2017,10,24,03,49,11.20
2017,10,24,03,50,11.20
2017,10,24,03,51,11.10
2017,10,24,03,52,11.10
2017,10,24,03,53,11.00
2017,10,24,03,54,11.00
2017,10,24,03,55,10.90
2017,10,24,03,56,10.80
2017,10,24,03,57,10.80
2017,10,24,03,58,10.70
2017,10,24,03,59,10.70
2017,10,24,04,00,10.60
2017,10,24,04,01,10.50
2017,10,24,04,02,10.50
2017,10,24,04,03,10.40
2017,10,24,04,04,10.40
2017,10,24,04,05,10.30
2017,10,24,04,06,10.30
2017,10,24,04,07,10.30
2017,10,24,04,08,10.30
2017,10,24,04,09,10.20
2017,10,24,04,10,10.20
2017,10,24,04,11,10.20
2017,10,24,04,12,10.20
2017,10,24,04,13,10.10
2017,10,24,04,14,10.10
2017,10,24,04,15,10.00
2017,10,24,04,16,10.00
2017,10,24,04,17,10.00
2017,10,24,04,18,10.00
2017,10,24,04,19,9.90
2017,10,24,04,20,9.90
2017,10,24,04,21,9.90
2017,10,24,04,22,9.90
2017,10,24,04,23,9.80
2017,10,24,04,24,9.80
2017,10,24,04,25,9.80
2017,10,24,04,26,9.80
2017,10,24,04,27,9.80
2017,10,24,04,28,9.80
2017,10,24,04,29,9.80
2017,10,24,04,30,9.90
2017,10,24,04,31,9.90
2017,10,24,04,32,9.90
2017,10,24,04,33,10.00
2017,10,24,04,34,10.00
2017,10,24,04,35,9.90
2017,10,24,04,36,9.90
2017,10,24,04,37,9.90
2017,10,24,04,38,9.90
2017,10,24,04,39,9.90
2017,10,24,04,40,9.90
2017,10,24,04,41,9.80
2017,10,24,04,42,9.80
2017,10,24,04,43,9.80
2017,10,24,04,44,9.80
2017,10,24,04,45,9.80
2017,10,24,04,46,9.80
2017,10,24,04,47,9.80
2017,10,24,04,48,9.70
2017,10,24,04,49,9.70
2017,10,24,04,50,9.70
2017,10,24,04,51,9.70
2017,10,24,04,52,9.70
2017,10,24,04,53,9.70
2017,10,24,04,54,9.70
2017,10,24,04,55,9.70
2017,10,24,04,56,9.70
2017,10,24,04,57,9.70
2017,10,24,04,58,9.70
2017,10,24,04,59,9.80
2017,10,24,05,00,9.80
2017,10,24,05,01,9.90
2017,10,24,05,02,9.90
2017,10,24,05,03,10.00
2017,10,24,05,04,10.00
2017,10,24,05,05,10.00
2017,10,24,05,06,10.00
2017,10,24,05,07,9.90
2017,10,24,05,08,9.90
2017,10,24,05,09,9.90
2017,10,24,05,10,9.80
2017,10,24,05,11,9.80
2017,10,24,05,12,9.70
2017,10,24,05,13,9.70
2017,10,24,05,14,9.60
2017,10,24,05,15,9.50
2017,10,24,05,16,9.40
2017,10,24,05,17,9.40
2017,10,24,05,18,9.30
2017,10,24,05,19,9.30
2017,10,24,05,20,9.20
2017,10,24,05,21,9.20
2017,10,24,05,22,9.10
2017,10,24,05,23,9.10
2017,10,24,05,24,9.00
2017,10,24,05,25,9.00
2017,10,24,05,26,9.00
2017,10,24,05,27,9.00
2017,10,24,05,28,8.90
2017,10,24,05,29,8.90
2017,10,24,05,30,8.90
2017,10,24,05,31,8.90
2017,10,24,05,32,8.90
2017,10,24,05,33,8.90
2017,10,24,05,34,8.90
2017,10,24,05,35,8.90
2017,10,24,05,36,8.90
2017,10,24,05,37,8.90
2017,10,24,05,38,8.80
2017,10,24,05,39,8.80
2017,10,24,05,40,8.70
2017,10,24,05,41,8.70
2017,10,24,05,42,8.70
2017,10,24,05,43,8.60
2017,10,24,05,44,8.60
2017,10,24,05,45,8.60
2017,10,24,05,46,8.60
2017,10,24,05,47,8.60
2017,10,24,05,48,8.50
2017,10,24,05,49,8.50
2017,10,24,05,50,8.40
2017,10,24,05,51,8.40
2017,10,24,05,52,8.40
2017,10,24,05,53,8.40
2017,10,24,05,54,8.40
2017,10,24,05,55,8.40
2017,10,24,05,56,8.40
2017,10,24,05,57,8.50
2017,10,24,05,58,8.50
2017,10,24,05,59,8.50
2017,10,24,06,00,8.50
2017,10,24,06,01,8.50
2017,10,24,06,02,8.50
2017,10,24,06,03,8.50
2017,10,24,06,04,8.50
2017,10,24,06,05,8.40
2017,10,24,06,06,8.40
2017,10,24,06,07,8.40
2017,10,24,06,08,8.40
2017,10,24,06,09,8.40
2017,10,24,06,10,8.50
2017,10,24,06,11,8.50
2017,10,24,06,12,8.60
2017,10,24,06,13,8.60
2017,10,24,06,14,8.60
2017,10,24,06,15,8.60
2017,10,24,06,16,8.60
2017,10,24,06,17,8.60
2017,10,24,06,18,8.60
2017,10,24,06,19,8.60
2017,10,24,06,20,8.60
2017,10,24,06,21,8.60
2017,10,24,06,22,8.60
2017,10,24,06,23,8.50
2017,10,24,06,24,8.50
2017,10,24,06,25,8.40
2017,10,24,06,26,8.40
2017,10,24,06,27,8.30
2017,10,24,06,28,8.30
2017,10,24,06,29,8.30
2017,10,24,06,30,8.30
2017,10,24,06,31,8.30
2017,10,24,06,32,8.30
2017,10,24,06,33,8.30
2017,10,24,06,34,8.30
2017,10,24,06,35,8.30
2017,10,24,06,36,8.30
2017,10,24,06,37,8.20
2017,10,24,06,38,8.20
2017,10,24,06,39,8.10
2017,10,24,06,40,8.10
2017,10,24,06,41,8.10
2017,10,24,06,42,8.10
2017,10,24,06,43,8.10
2017,10,24,06,44,8.10
2017,10,24,06,45,8.10
2017,10,24,06,46,8.10
2017,10,24,06,47,8.00
2017,10,24,06,48,8.00
2017,10,24,06,49,8.00
2017,10,24,06,50,8.00
2017,10,24,06,51,8.10
2017,10,24,06,52,8.00
2017,10,24,06,53,8.00
2017,10,24,06,54,7.90
2017,10,24,06,55,7.80
2017,10,24,06,56,7.70
2017,10,24,06,57,7.70
2017,10,24,06,58,7.60
2017,10,24,06,59,7.60
2017,10,24,07,00,7.50
2017,10,24,07,01,7.50
2017,10,24,07,02,7.60
2017,10,24,07,03,7.70
2017,10,24,07,04,7.70
2017,10,24,07,05,7.70
2017,10,24,07,06,7.80
2017,10,24,07,07,7.80
2017,10,24,07,08,7.80
2017,10,24,07,09,7.80
2017,10,24,07,10,7.90
2017,10,24,07,11,8.00
2017,10,24,07,12,8.00
2017,10,24,07,13,8.10
2017,10,24,07,14,8.20
2017,10,24,07,15,8.20
2017,10,24,07,16,8.30
2017,10,24,07,17,8.40
2017,10,24,07,18,8.50
2017,10,24,07,19,8.50
2017,10,24,07,20,8.60
2017,10,24,07,21,8.60
2017,10,24,07,22,8.50
2017,10,24,07,23,8.50
2017,10,24,07,24,8.50
2017,10,24,07,25,8.40
2017,10,24,07,26,8.40
2017,10,24,07,27,8.30
2017,10,24,07,28,8.30
2017,10,24,07,29,8.20
2017,10,24,07,30,8.20
2017,10,24,07,31,8.10
2017,10,24,07,32,8.10
2017,10,24,07,33,8.20
2017,10,24,07,34,8.30
2017,10,24,07,35,8.30
2017,10,24,07,36,8.40
2017,10,24,07,37,8.50
2017,10,24,07,38,8.50
2017,10,24,07,39,8.60
2017,10,24,07,40,8.60
2017,10,24,07,41,8.60
2017,10,24,07,42,8.60
2017,10,24,07,43,8.60
2017,10,24,07,44,8.60
2017,10,24,07,45,8.60
2017,10,24,07,46,8.50
2017,10,24,07,47,8.50
2017,10,24,07,48,8.50
2017,10,24,07,49,8.40
2017,10,24,07,50,8.40
2017,10,24,07,51,8.40
2017,10,24,07,52,8.40
2017,10,24,07,53,8.30
2017,10,24,07,54,8.30
2017,10,24,07,55,8.30
2017,10,24,07,56,8.30
2017,10,24,07,57,8.30
2017,10,24,07,58,8.30
2017,10,24,07,59,8.20
2017,10,24,08,00,8.20
2017,10,24,08,01,8.20
2017,10,24,08,02,8.10
2017,10,24,08,03,8.10
2017,10,24,08,04,8.10
2017,10,24,08,05,8.10
2017,10,24,08,06,8.00
2017,10,24,08,07,8.00
2017,10,24,08,08,8.00
2017,10,24,08,09,8.00
2017,10,24,08,10,8.00
2017,10,24,08,11,8.00
2017,10,24,08,12,7.90
2017,10,24,08,13,7.90
2017,10,24,08,14,7.90
2017,10,24,08,15,7.90
2017,10,24,08,16,8.00
2017,10,24,08,17,8.00
2017,10,24,08,18,8.00
2017,10,24,08,19,8.00
2017,10,24,08,20,8.00
2017,10,24,08,21,8.00
2017,10,24,08,22,8.00
2017,10,24,08,23,8.00
2017,10,24,08,24,8.00
2017,10,24,08,25,8.00
2017,10,24,08,26,8.00
2017,10,24,08,27,8.00
2017,10,24,08,28,8.00
2017,10,24,08,29,8.00
2017,10,24,08,30,8.10
2017,10,24,08,31,8.10
2017,10,24,08,32,8.10
2017,10,24,08,33,8.10
2017,10,24,08,34,8.10
2017,10,24,08,35,8.20
2017,10,24,08,36,8.20
2017,10,24,08,37,8.20
2017,10,24,08,38,8.20
2017,10,24,08,39,8.30
2017,10,24,08,40,8.30
2017,10,24,08,41,8.30
2017,10,24,08,42,8.30
2017,10,24,08,43,8.40
2017,10,24,08,44,8.40
2017,10,24,08,45,8.40
2017,10,24,08,46,8.40
2017,10,24,08,47,8.40
2017,10,24,08,48,8.40
2017,10,24,08,49,8.40
2017,10,24,08,50,8.40
2017,10,24,08,51,8.50
2017,10,24,08,52,8.50
2017,10,24,08,53,8.60
2017,10,24,08,54,8.60
2017,10,24,08,55,8.60
2017,10,24,08,56,8.60
2017,10,24,08,57,8.70
2017,10,24,08,58,8.70
2017,10,24,08,59,8.70
2017,10,24,09,00,8.80
2017,10,24,09,01,8.90
2017,10,24,09,02,8.90
2017,10,24,09,03,9.00
2017,10,24,09,04,9.10
2017,10,24,09,05,9.20
2017,10,24,09,06,9.30
2017,10,24,09,07,9.40
2017,10,24,09,08,9.50
2017,10,24,09,09,9.50
2017,10,24,09,10,9.60
2017,10,24,09,11,9.70
2017,10,24,09,12,9.80
2017,10,24,09,13,9.90
2017,10,24,09,14,10.00
2017,10,24,09,15,10.10
2017,10,24,09,16,10.20
2017,10,24,09,17,10.30
2017,10,24,09,18,10.40
2017,10,24,09,19,10.60
2017,10,24,09,20,10.70
2017,10,24,09,21,10.80
2017,10,24,09,22,10.90
2017,10,24,09,23,11.00
2017,10,24,09,24,11.00
2017,10,24,09,25,11.10
2017,10,24,09,26,11.20
2017,10,24,09,27,11.20
2017,10,24,09,28,11.20
2017,10,24,09,29,11.30
2017,10,24,09,30,11.30
2017,10,24,09,31,11.30
2017,10,24,09,32,11.40
2017,10,24,09,33,11.40
2017,10,24,09,34,11.40
2017,10,24,09,35,11.40
2017,10,24,09,36,11.40
2017,10,24,09,37,11.40
2017,10,24,09,38,11.40
2017,10,24,09,39,11.30
2017,10,24,09,40,11.30
2017,10,24,09,41,11.30
2017,10,24,09,42,11.20
2017,10,24,09,43,11.20
2017,10,24,09,44,11.20
2017,10,24,09,45,11.10
2017,10,24,09,46,11.10
2017,10,24,09,47,11.10
2017,10,24,09,48,11.10
2017,10,24,09,49,11.10
2017,10,24,09,50,11.10
2017,10,24,09,51,11.20
2017,10,24,09,52,11.20
2017,10,24,09,53,11.30
2017,10,24,09,54,11.30
2017,10,24,09,55,11.30
2017,10,24,09,56,11.40
2017,10,24,09,57,11.40
2017,10,24,09,58,11.50
2017,10,24,09,59,11.60
2017,10,24,10,00,11.60
2017,10,24,10,01,11.70
2017,10,24,10,02,11.80
2017,10,24,10,03,11.90
2017,10,24,10,04,12.00
2017,10,24,10,05,12.10
2017,10,24,10,06,12.10
2017,10,24,10,07,12.20
2017,10,24,10,08,12.30
2017,10,24,10,09,12.30
2017,10,24,10,10,12.40
2017,10,24,10,11,12.50
2017,10,24,10,12,12.50
2017,10,24,10,13,12.60
2017,10,24,10,14,12.60
2017,10,24,10,15,12.70
2017,10,24,10,16,12.70
2017,10,24,10,17,12.70
2017,10,24,10,18,12.70
2017,10,24,10,19,12.70
2017,10,24,10,20,12.70
2017,10,24,10,21,12.70
2017,10,24,10,22,12.60
2017,10,24,10,23,12.50
2017,10,24,10,24,12.50
2017,10,24,10,25,12.40
2017,10,24,10,26,12.40
2017,10,24,10,27,12.30
2017,10,24,10,28,12.30
2017,10,24,10,29,12.10
2017,10,24,10,30,12.00
2017,10,24,10,31,11.90
2017,10,24,10,32,11.90
2017,10,24,10,33,11.80
2017,10,24,10,34,11.80
2017,10,24,10,35,11.70
2017,10,24,10,36,11.70
2017,10,24,10,37,11.70
2017,10,24,10,38,11.70
2017,10,24,10,39,11.70
2017,10,24,10,40,11.70
2017,10,24,10,41,11.70
2017,10,24,10,42,11.70
2017,10,24,10,43,11.70
2017,10,24,10,44,11.70
2017,10,24,10,45,11.60
2017,10,24,10,46,11.60
2017,10,24,10,47,11.60
2017,10,24,10,48,11.60
2017,10,24,10,49,11.70
2017,10,24,10,50,11.80
2017,10,24,10,51,11.80
2017,10,24,10,52,11.90
2017,10,24,10,53,11.90
2017,10,24,10,54,11.90
2017,10,24,10,55,11.90
2017,10,24,10,56,11.90
2017,10,24,10,57,11.90
2017,10,24,10,58,12.00
2017,10,24,10,59,12.00
2017,10,24,11,00,12.00
2017,10,24,11,01,12.10
2017,10,24,11,02,12.10
2017,10,24,11,03,12.10
2017,10,24,11,04,12.10
2017,10,24,11,05,12.10
2017,10,24,11,06,12.20
2017,10,24,11,07,12.20
2017,10,24,11,08,12.20
2017,10,24,11,09,12.30
2017,10,24,11,10,12.30
2017,10,24,11,11,12.40
2017,10,24,11,12,12.40
2017,10,24,11,13,12.40
2017,10,24,11,14,12.50
2017,10,24,11,15,12.50
2017,10,24,11,16,12.60
2017,10,24,11,17,12.60
2017,10,24,11,18,12.60
2017,10,24,11,19,12.60
2017,10,24,11,20,12.60
2017,10,24,11,21,12.60
2017,10,24,11,22,12.60
2017,10,24,11,23,12.70
2017,10,24,11,24,12.70
2017,10,24,11,25,12.70
2017,10,24,11,26,12.70
2017,10,24,11,27,12.70
2017,10,24,11,28,12.70
2017,10,24,11,29,12.80
2017,10,24,11,30,12.80
2017,10,24,11,31,12.80
2017,10,24,11,32,12.90
2017,10,24,11,33,12.90
2017,10,24,11,34,12.90
2017,10,24,11,35,12.90
2017,10,24,11,36,12.90
2017,10,24,11,37,12.90
2017,10,24,11,38,13.00
2017,10,24,11,39,13.00
2017,10,24,11,40,13.00
2017,10,24,11,41,12.90
2017,10,24,11,42,12.90
2017,10,24,11,43,12.80
2017,10,24,11,44,12.80
2017,10,24,11,45,12.80
2017,10,24,11,46,12.80
2017,10,24,11,47,12.80
2017,10,24,11,48,12.70
2017,10,24,11,49,12.70
2017,10,24,11,50,12.60
2017,10,24,11,51,12.50
2017,10,24,11,52,12.50
2017,10,24,11,53,12.40
2017,10,24,11,54,12.40
2017,10,24,11,55,12.40
2017,10,24,11,56,12.40
2017,10,24,11,57,12.30
2017,10,24,11,58,12.40
2017,10,24,11,59,12.30
2017,10,24,12,00,12.30
2017,10,24,12,01,12.30
2017,10,24,12,02,12.20
2017,10,24,12,03,12.20
2017,10,24,12,04,12.20
2017,10,24,12,05,12.30
2017,10,24,12,06,12.30
2017,10,24,12,07,12.40
2017,10,24,12,08,12.40
2017,10,24,12,09,12.40
2017,10,24,12,10,12.40
2017,10,24,12,11,12.40
2017,10,24,12,12,12.40
2017,10,24,12,13,12.40
2017,10,24,12,14,12.50
2017,10,24,12,15,12.50
2017,10,24,12,16,12.40
2017,10,24,12,17,12.40
2017,10,24,12,18,12.40
2017,10,24,12,19,12.50
2017,10,24,12,20,12.50
2017,10,24,12,21,12.60
2017,10,24,12,22,12.60
2017,10,24,12,23,12.60
2017,10,24,12,24,12.70
2017,10,24,12,25,12.70
2017,10,24,12,26,12.80
2017,10,24,12,27,12.80
2017,10,24,12,28,12.90
2017,10,24,12,29,12.90
2017,10,24,12,30,12.90
2017,10,24,12,31,13.00
2017,10,24,12,32,13.10
2017,10,24,12,33,13.10
2017,10,24,12,34,13.10
2017,10,24,12,35,13.20
2017,10,24,12,36,13.20
2017,10,24,12,37,13.30
2017,10,24,12,38,13.30
2017,10,24,12,39,13.30
2017,10,24,12,40,13.30
2017,10,24,12,41,13.30
2017,10,24,12,42,13.30
2017,10,24,12,43,13.40
2017,10,24,12,44,13.40
2017,10,24,12,45,13.40
2017,10,24,12,46,13.40
2017,10,24,12,47,13.40
2017,10,24,12,48,13.40
2017,10,24,12,49,13.40
2017,10,24,12,50,13.40
2017,10,24,12,51,13.40
2017,10,24,12,52,13.40
2017,10,24,12,53,13.30
2017,10,24,12,54,13.30
2017,10,24,12,55,13.40
2017,10,24,12,56,13.40
2017,10,24,12,57,13.40
2017,10,24,12,58,13.40
2017,10,24,12,59,13.50
2017,10,24,13,00,13.50
2017,10,24,13,01,13.60
2017,10,24,13,02,13.60
2017,10,24,13,03,13.60
2017,10,24,13,04,13.70
2017,10,24,13,05,13.70
2017,10,24,13,06,13.70
2017,10,24,13,07,13.80
2017,10,24,13,08,13.80
2017,10,24,13,09,13.80
2017,10,24,13,10,13.70
2017,10,24,13,11,13.70
2017,10,24,13,12,13.70
2017,10,24,13,13,13.60
2017,10,24,13,14,13.60
2017,10,24,13,15,13.60
2017,10,24,13,16,13.70
2017,10,24,13,17,13.70
2017,10,24,13,18,13.60
2017,10,24,13,19,13.50
2017,10,24,13,20,13.50
2017,10,24,13,21,13.40
2017,10,24,13,22,13.40
2017,10,24,13,23,13.40
2017,10,24,13,24,13.40
2017,10,24,13,25,13.40
2017,10,24,13,26,13.40
2017,10,24,13,27,13.50
2017,10,24,13,28,13.50
2017,10,24,13,29,13.60
2017,10,24,13,30,13.70
2017,10,24,13,31,13.80
2017,10,24,13,32,13.90
2017,10,24,13,33,14.00
2017,10,24,13,34,14.00
2017,10,24,13,35,14.10
2017,10,24,13,36,14.10
2017,10,24,13,37,14.10
2017,10,24,13,38,14.20
2017,10,24,13,39,14.20
2017,10,24,13,40,14.10
2017,10,24,13,41,14.10
2017,10,24,13,42,14.20
2017,10,24,13,43,14.20
2017,10,24,13,44,14.20
2017,10,24,13,45,14.30
2017,10,24,13,46,14.30
2017,10,24,13,47,14.30
2017,10,24,13,48,14.40
2017,10,24,13,49,14.40
2017,10,24,13,50,14.50
2017,10,24,13,51,14.50
2017,10,24,13,52,14.50
2017,10,24,13,53,14.50
2017,10,24,13,54,14.40
2017,10,24,13,55,14.30
2017,10,24,13,56,14.20
2017,10,24,13,57,14.10
2017,10,24,13,58,14.10
2017,10,24,13,59,14.00
2017,10,24,14,00,14.00
2017,10,24,14,01,14.00
2017,10,24,14,02,14.10
2017,10,24,14,03,14.10
2017,10,24,14,04,14.10
2017,10,24,14,05,14.10
2017,10,24,14,06,14.10
2017,10,24,14,07,14.00
2017,10,24,14,08,14.00
2017,10,24,14,09,13.90
2017,10,24,14,10,13.90
2017,10,24,14,11,13.90
2017,10,24,14,12,13.90
2017,10,24,14,13,13.90
2017,10,24,14,14,13.90
2017,10,24,14,15,13.80
2017,10,24,14,16,13.80
2017,10,24,14,17,13.80
2017,10,24,14,18,13.80
2017,10,24,14,19,13.90
2017,10,24,14,20,13.90
2017,10,24,14,21,14.00
2017,10,24,14,22,14.00
2017,10,24,14,23,14.00
2017,10,24,14,24,14.00
2017,10,24,14,25,14.10
2017,10,24,14,26,14.10
2017,10,24,14,27,14.10
2017,10,24,14,28,14.10
2017,10,24,14,29,14.10
2017,10,24,14,30,14.10
2017,10,24,14,31,14.10
2017,10,24,14,32,14.10
2017,10,24,14,33,14.20
2017,10,24,14,34,14.20
2017,10,24,14,35,14.30
2017,10,24,14,36,14.40
2017,10,24,14,37,14.40
2017,10,24,14,38,14.40
2017,10,24,14,39,14.40
2017,10,24,14,40,14.40
2017,10,24,14,41,14.40
2017,10,24,14,42,14.40
2017,10,24,14,43,14.40
2017,10,24,14,44,14.30
2017,10,24,14,45,14.30
2017,10,24,14,46,14.30
2017,10,24,14,47,14.30
2017,10,24,14,48,14.30
2017,10,24,14,49,14.30
2017,10,24,14,50,14.30
2017,10,24,14,51,14.30
2017,10,24,14,52,14.20
2017,10,24,14,53,14.20
2017,10,24,14,54,14.20
2017,10,24,14,55,14.20
2017,10,24,14,56,14.20
2017,10,24,14,57,14.10
2017,10,24,14,58,14.10
2017,10,24,14,59,14.10
2017,10,24,15,00,14.10
2017,10,24,15,01,14.10
2017,10,24,15,02,14.10
2017,10,24,15,03,14.10
2017,10,24,15,04,14.20
2017,10,24,15,05,14.20
2017,10,24,15,06,14.20
2017,10,24,15,07,14.20
2017,10,24,15,08,14.10
2017,10,24,15,09,14.00
2017,10,24,15,10,13.90
2017,10,24,15,11,13.80
2017,10,24,15,12,13.70
2017,10,24,15,13,13.70
2017,10,24,15,14,13.70
2017,10,24,15,15,13.70
2017,10,24,15,16,13.70
2017,10,24,15,17,13.60
2017,10,24,15,18,13.60
2017,10,24,15,19,13.50
2017,10,24,15,20,13.50
2017,10,24,15,21,13.50
2017,10,24,15,22,13.40
2017,10,24,15,23,13.40
2017,10,24,15,24,13.40
2017,10,24,15,25,13.30
2017,10,24,15,26,13.30
2017,10,24,15,27,13.20
2017,10,24,15,28,13.20
2017,10,24,15,29,13.20
2017,10,24,15,30,13.20
2017,10,24,15,31,13.30
2017,10,24,15,32,13.30
2017,10,24,15,33,13.30
2017,10,24,15,34,13.30
2017,10,24,15,35,13.30
2017,10,24,15,36,13.40
2017,10,24,15,37,13.40
2017,10,24,15,38,13.40
2017,10,24,15,39,13.50
2017,10,24,15,40,13.50
2017,10,24,15,41,13.50
2017,10,24,15,42,13.50
2017,10,24,15,43,13.50
2017,10,24,15,44,13.50
2017,10,24,15,45,13.60
2017,10,24,15,46,13.60
2017,10,24,15,47,13.70
2017,10,24,15,48,13.70
2017,10,24,15,49,13.70
2017,10,24,15,50,13.80
2017,10,24,15,51,13.80
2017,10,24,15,52,13.80
2017,10,24,15,53,13.80
2017,10,24,15,54,13.90
2017,10,24,15,55,13.90
2017,10,24,15,56,14.00
2017,10,24,15,57,14.00
2017,10,24,15,58,14.10
2017,10,24,15,59,14.10
2017,10,24,16,00,14.10
2017,10,24,16,01,14.10
2017,10,24,16,02,14.10
2017,10,24,16,03,14.00
2017,10,24,16,04,14.00
2017,10,24,16,05,14.00
2017,10,24,16,06,14.10
2017,10,24,16,07,14.10
2017,10,24,16,08,14.10
2017,10,24,16,09,14.10
2017,10,24,16,10,14.10
2017,10,24,16,11,14.10
2017,10,24,16,12,14.10
2017,10,24,16,13,14.10
2017,10,24,16,14,14.10
2017,10,24,16,15,14.10
2017,10,24,16,16,14.00
2017,10,24,16,17,14.00
2017,10,24,16,18,14.00
2017,10,24,16,19,14.00
2017,10,24,16,20,13.90
2017,10,24,16,21,13.90
2017,10,24,16,22,13.90
2017,10,24,16,23,13.90
2017,10,24,16,24,13.90
2017,10,24,16,25,13.90
2017,10,24,16,26,13.90
2017,10,24,16,27,13.90
2017,10,24,16,28,14.00
2017,10,24,16,29,14.00
2017,10,24,16,30,14.00
2017,10,24,16,31,14.00
2017,10,24,16,32,14.00
2017,10,24,16,33,13.90
2017,10,24,16,34,13.90
2017,10,24,16,35,13.90
2017,10,24,16,36,13.90
2017,10,24,16,37,13.80
2017,10,24,16,38,13.80
2017,10,24,16,39,13.80
2017,10,24,16,40,13.90
2017,10,24,16,41,13.90
2017,10,24,16,42,13.90
2017,10,24,16,43,13.90
2017,10,24,16,44,13.90
2017,10,24,16,45,13.90
2017,10,24,16,46,13.80
2017,10,24,16,47,13.80
2017,10,24,16,48,13.80
2017,10,24,16,49,13.70
2017,10,24,16,50,13.70
2017,10,24,16,51,13.70
2017,10,24,16,52,13.70
2017,10,24,16,53,13.70
2017,10,24,16,54,13.70
2017,10,24,16,55,13.70
2017,10,24,16,56,13.70
2017,10,24,16,57,13.60
2017,10,24,16,58,13.60
2017,10,24,16,59,13.50
2017,10,24,17,00,13.50
2017,10,24,17,01,13.40
2017,10,24,17,02,13.40
2017,10,24,17,03,13.30
2017,10,24,17,04,13.30
2017,10,24,17,05,13.30
2017,10,24,17,06,13.30
2017,10,24,17,07,13.30
2017,10,24,17,08,13.30
2017,10,24,17,09,13.30
2017,10,24,17,10,13.30
2017,10,24,17,11,13.30
2017,10,24,17,12,13.30
2017,10,24,17,13,13.30
2017,10,24,17,14,13.30
2017,10,24,17,15,13.20
2017,10,24,17,16,13.20
2017,10,24,17,17,13.20
2017,10,24,17,18,13.10
2017,10,24,17,19,13.10
2017,10,24,17,20,13.00
2017,10,24,17,21,13.00
2017,10,24,17,22,12.90
2017,10,24,17,23,12.90
2017,10,24,17,24,12.90
2017,10,24,17,25,12.80
2017,10,24,17,26,12.80
2017,10,24,17,27,12.80
2017,10,24,17,28,12.80
2017,10,24,17,29,12.70
2017,10,24,17,30,12.70
2017,10,24,17,31,12.70
2017,10,24,17,32,12.70